Wetterdaten: Dienstag, 20.10.2015
Datum Zeit Temperatur Luftfeuchte Luftdruck Regen Wind Richtung Richtung Sonnenschein ET UV Solar Taupunkt Windchill Windben
20.10.2015 00:00 8,1 C 79 % 1021,9 hPa 0,0 l/m 0,0 km/h (0 Bft) W 273 0 min 0,000 mm 0,0 UV-I 0 W/m 4,7 C 8,1 C 0,0 km/h (0 Bft)
20.10.2015 00:05 8,0 C 79 % 1021,9 hPa 0,0 l/m 0,0 km/h (0 Bft) W 273 0 min 0,000 mm 0,0 UV-I 0 W/m 4,6 C 8,0 C 0,0 km/h (0 Bft)
20.10.2015 00:10 8,1 C 79 % 1021,9 hPa 0,0 l/m 0,0 km/h (0 Bft) W 273 0 min 0,000 mm 0,0 UV-I 0 W/m 4,7 C 8,1 C 0,0 km/h (0 Bft)
20.10.2015 00:15 8,1 C 79 % 1021,8 hPa 0,0 l/m 0,0 km/h (0 Bft) W 273 0 min 0,000 mm 0,0 UV-I 0 W/m 4,7 C 8,1 C 0,0 km/h (0 Bft)
20.10.2015 00:20 8,1 C 79 % 1021,8 hPa 0,0 l/m 0,0 km/h (0 Bft) W 273 0 min 0,000 mm 0,0 UV-I 0 W/m 4,7 C 8,1 C 1,6 km/h (1 Bft)
20.10.2015 00:25 8,1 C 79 % 1021,8 hPa 0,0 l/m 0,0 km/h (0 Bft) W 273 0 min 0,000 mm 0,0 UV-I 0 W/m 4,7 C 8,1 C 0,0 km/h (0 Bft)
20.10.2015 00:30 8,1 C 79 % 1021,8 hPa 0,0 l/m 0,0 km/h (0 Bft) W 273 0 min 0,000 mm 0,0 UV-I 0 W/m 4,7 C 8,1 C 1,6 km/h (1 Bft)
20.10.2015 00:35 8,1 C 79 % 1021,8 hPa 0,0 l/m 0,0 km/h (0 Bft) W 273 0 min 0,000 mm 0,0 UV-I 0 W/m 4,7 C 8,1 C 1,6 km/h (1 Bft)
20.10.2015 00:40 8,1 C 79 % 1021,8 hPa 0,0 l/m 0,2 km/h (0 Bft) W 264 0 min 0,000 mm 0,0 UV-I 0 W/m 4,7 C 8,1 C 3,2 km/h (1 Bft)
20.10.2015 00:45 8,1 C 79 % 1021,8 hPa 0,0 l/m 0,0 km/h (0 Bft) W 279 0 min 0,000 mm 0,0 UV-I 0 W/m 4,7 C 8,1 C 1,6 km/h (1 Bft)
20.10.2015 00:50 8,1 C 79 % 1021,7 hPa 0,0 l/m 0,2 km/h (0 Bft) W 267 0 min 0,000 mm 0,0 UV-I 0 W/m 4,7 C 8,1 C 3,2 km/h (1 Bft)
20.10.2015 00:55 8,1 C 79 % 1021,8 hPa 0,0 l/m 0,0 km/h (0 Bft) W 267 0 min 0,000 mm 0,0 UV-I 0 W/m 4,7 C 8,1 C 1,6 km/h (1 Bft)
20.10.2015 01:00 8,0 C 79 % 1021,8 hPa 0,0 l/m 0,0 km/h (0 Bft) W 267 0 min 0,000 mm 0,0 UV-I 0 W/m 4,6 C 8,0 C 0,0 km/h (0 Bft)
20.10.2015 01:05 8,0 C 79 % 1021,8 hPa 0,0 l/m 0,0 km/h (0 Bft) W 267 0 min 0,025 mm 0,0 UV-I 0 W/m 4,6 C 8,0 C 0,0 km/h (0 Bft)
20.10.2015 01:10 8,0 C 79 % 1021,7 hPa 0,0 l/m 0,0 km/h (0 Bft) W 267 0 min 0,000 mm 0,0 UV-I 0 W/m 4,6 C 8,0 C 0,0 km/h (0 Bft)
20.10.2015 01:15 8,0 C 79 % 1021,7 hPa 0,0 l/m 0,0 km/h (0 Bft) W 267 0 min 0,000 mm 0,0 UV-I 0 W/m 4,6 C 8,0 C 0,0 km/h (0 Bft)
20.10.2015 01:20 8,0 C 79 % 1021,6 hPa 0,0 l/m 0,0 km/h (0 Bft) W 267 0 min 0,000 mm 0,0 UV-I 0 W/m 4,6 C 8,0 C 0,0 km/h (0 Bft)
20.10.2015 01:25 8,0 C 79 % 1021,6 hPa 0,0 l/m 0,0 km/h (0 Bft) W 267 0 min 0,000 mm 0,0 UV-I 0 W/m 4,6 C 8,0 C 0,0 km/h (0 Bft)
20.10.2015 01:30 8,0 C 79 % 1021,6 hPa 0,0 l/m 0,0 km/h (0 Bft) W 267 0 min 0,000 mm 0,0 UV-I 0 W/m 4,6 C 8,0 C 0,0 km/h (0 Bft)
20.10.2015 01:35 8,0 C 79 % 1021,7 hPa 0,0 l/m 0,0 km/h (0 Bft) W 267 0 min 0,000 mm 0,0 UV-I 0 W/m 4,6 C 8,0 C 0,0 km/h (0 Bft)
20.10.2015 01:40 8,0 C 79 % 1021,6 hPa 0,0 l/m 0,0 km/h (0 Bft) W 267 0 min 0,000 mm 0,0 UV-I 0 W/m 4,6 C 8,0 C 0,0 km/h (0 Bft)
20.10.2015 01:45 8,0 C 79 % 1021,6 hPa 0,0 l/m 0,0 km/h (0 Bft) W 267 0 min 0,000 mm 0,0 UV-I 0 W/m 4,6 C 8,0 C 0,0 km/h (0 Bft)
20.10.2015 01:50 8,0 C 79 % 1021,5 hPa 0,0 l/m 0,0 km/h (0 Bft) W 267 0 min 0,000 mm 0,0 UV-I 0 W/m 4,6 C 8,0 C 1,6 km/h (1 Bft)
20.10.2015 01:55 8,0 C 79 % 1021,5 hPa 0,0 l/m 0,0 km/h (0 Bft) W 267 0 min 0,000 mm 0,0 UV-I 0 W/m 4,6 C 8,0 C 0,0 km/h (0 Bft)
20.10.2015 02:00 8,0 C 79 % 1021,4 hPa 0,0 l/m 0,0 km/h (0 Bft) W 267 0 min 0,000 mm 0,0 UV-I 0 W/m 4,6 C 8,0 C 0,0 km/h (0 Bft)
20.10.2015 02:05 8,0 C 79 % 1021,4 hPa 0,0 l/m 0,0 km/h (0 Bft) W 267 0 min 0,026 mm 0,0 UV-I 0 W/m 4,6 C 8,0 C 0,0 km/h (0 Bft)
20.10.2015 02:10 8,0 C 79 % 1021,4 hPa 0,0 l/m 0,0 km/h (0 Bft) W 267 0 min 0,000 mm 0,0 UV-I 0 W/m 4,6 C 8,0 C 0,0 km/h (0 Bft)
20.10.2015 02:15 8,0 C 79 % 1021,4 hPa 0,0 l/m 0,0 km/h (0 Bft) W 267 0 min 0,000 mm 0,0 UV-I 0 W/m 4,6 C 8,0 C 0,0 km/h (0 Bft)
20.10.2015 02:20 8,0 C 79 % 1021,4 hPa 0,0 l/m 0,0 km/h (0 Bft) W 267 0 min 0,000 mm 0,0 UV-I 0 W/m 4,6 C 8,0 C 0,0 km/h (0 Bft)
20.10.2015 02:25 8,0 C 79 % 1021,3 hPa 0,0 l/m 0,0 km/h (0 Bft) W 267 0 min 0,000 mm 0,0 UV-I 0 W/m 4,6 C 8,0 C 0,0 km/h (0 Bft)
20.10.2015 02:30 8,0 C 79 % 1021,3 hPa 0,0 l/m 0,0 km/h (0 Bft) W 267 0 min 0,000 mm 0,0 UV-I 0 W/m 4,6 C 8,0 C 1,6 km/h (1 Bft)
20.10.2015 02:35 8,0 C 79 % 1021,3 hPa 0,0 l/m 0,0 km/h (0 Bft) W 267 0 min 0,000 mm 0,0 UV-I 0 W/m 4,6 C 8,0 C 0,0 km/h (0 Bft)
20.10.2015 02:40 8,0 C 79 % 1021,4 hPa 0,0 l/m 0,0 km/h (0 Bft) W 267 0 min 0,000 mm 0,0 UV-I 0 W/m 4,6 C 8,0 C 0,0 km/h (0 Bft)
20.10.2015 02:45 8,0 C 79 % 1021,4 hPa 0,0 l/m 0,0 km/h (0 Bft) W 267 0 min 0,000 mm 0,0 UV-I 0 W/m 4,6 C 8,0 C 1,6 km/h (1 Bft)
20.10.2015 02:50 8,0 C 79 % 1021,4 hPa 0,0 l/m 0,0 km/h (0 Bft) W 269 0 min 0,000 mm 0,0 UV-I 0 W/m 4,6 C 8,0 C 1,6 km/h (1 Bft)
20.10.2015 02:55 7,9 C 79 % 1021,5 hPa 0,0 l/m 1,1 km/h (1 Bft) W-SW 240 0 min 0,000 mm 0,0 UV-I 0 W/m 4,5 C 7,9 C 6,4 km/h (2 Bft)
20.10.2015 03:00 7,9 C 79 % 1021,5 hPa 0,0 l/m 1,4 km/h (1 Bft) W-SW 257 0 min 0,000 mm 0,0 UV-I 0 W/m 4,5 C 7,9 C 8,0 km/h (2 Bft)
20.10.2015 03:05 7,9 C 79 % 1021,6 hPa 0,0 l/m 0,4 km/h (0 Bft) SW 221 0 min 0,025 mm 0,0 UV-I 0 W/m 4,5 C 7,9 C 4,8 km/h (1 Bft)
20.10.2015 03:10 7,9 C 79 % 1021,6 hPa 0,0 l/m 0,0 km/h (0 Bft) W 277 0 min 0,000 mm 0,0 UV-I 0 W/m 4,5 C 7,9 C 1,6 km/h (1 Bft)
20.10.2015 03:15 7,9 C 79 % 1021,6 hPa 0,0 l/m 0,3 km/h (0 Bft) SW 231 0 min 0,000 mm 0,0 UV-I 0 W/m 4,5 C 7,9 C 3,2 km/h (1 Bft)
20.10.2015 03:20 7,9 C 79 % 1021,6 hPa 0,0 l/m 0,8 km/h (0 Bft) W-SW 251 0 min 0,000 mm 0,0 UV-I 0 W/m 4,5 C 7,9 C 4,8 km/h (1 Bft)
20.10.2015 03:25 7,9 C 79 % 1021,6 hPa 0,0 l/m 0,1 km/h (0 Bft) W-SW 248 0 min 0,000 mm 0,0 UV-I 0 W/m 4,5 C 7,9 C 3,2 km/h (1 Bft)
20.10.2015 03:30 7,9 C 79 % 1021,6 hPa 0,0 l/m 0,0 km/h (0 Bft) W 266 0 min 0,000 mm 0,0 UV-I 0 W/m 4,5 C 7,9 C 0,0 km/h (0 Bft)
20.10.2015 03:35 7,8 C 79 % 1021,6 hPa 0,0 l/m 0,0 km/h (0 Bft) W 266 0 min 0,000 mm 0,0 UV-I 0 W/m 4,4 C 7,8 C 1,6 km/h (1 Bft)
20.10.2015 03:40 7,8 C 79 % 1021,6 hPa 0,0 l/m 0,0 km/h (0 Bft) W 266 0 min 0,000 mm 0,0 UV-I 0 W/m 4,4 C 7,8 C 1,6 km/h (1 Bft)
20.10.2015 03:45 7,8 C 79 % 1021,6 hPa 0,0 l/m 0,0 km/h (0 Bft) W 266 0 min 0,000 mm 0,0 UV-I 0 W/m 4,4 C 7,8 C 0,0 km/h (0 Bft)
20.10.2015 03:50 7,8 C 79 % 1021,6 hPa 0,0 l/m 0,2 km/h (0 Bft) W 279 0 min 0,000 mm 0,0 UV-I 0 W/m 4,4 C 7,8 C 3,2 km/h (1 Bft)
20.10.2015 03:55 7,8 C 79 % 1021,6 hPa 0,0 l/m 0,8 km/h (0 Bft) W 259 0 min 0,000 mm 0,0 UV-I 0 W/m 4,4 C 7,8 C 6,4 km/h (2 Bft)
20.10.2015 04:00 7,7 C 79 % 1021,6 hPa 0,0 l/m 0,7 km/h (0 Bft) W-SW 252 0 min 0,000 mm 0,0 UV-I 0 W/m 4,3 C 7,7 C 4,8 km/h (1 Bft)
20.10.2015 04:05 7,7 C 79 % 1021,6 hPa 0,0 l/m 0,1 km/h (0 Bft) W 267 0 min 0,026 mm 0,0 UV-I 0 W/m 4,3 C 7,7 C 1,6 km/h (1 Bft)
20.10.2015 04:10 7,7 C 79 % 1021,6 hPa 0,0 l/m 0,0 km/h (0 Bft) W 263 0 min 0,000 mm 0,0 UV-I 0 W/m 4,3 C 7,7 C 0,0 km/h (0 Bft)
20.10.2015 04:15 7,7 C 79 % 1021,6 hPa 0,0 l/m 0,0 km/h (0 Bft) W 263 0 min 0,000 mm 0,0 UV-I 0 W/m 4,3 C 7,7 C 1,6 km/h (1 Bft)
20.10.2015 04:20 7,7 C 79 % 1021,7 hPa 0,0 l/m 0,1 km/h (0 Bft) W-SW 246 0 min 0,000 mm 0,0 UV-I 0 W/m 4,3 C 7,7 C 3,2 km/h (1 Bft)
20.10.2015 04:25 7,7 C 79 % 1021,6 hPa 0,0 l/m 0,4 km/h (0 Bft) W 275 0 min 0,000 mm 0,0 UV-I 0 W/m 4,3 C 7,7 C 3,2 km/h (1 Bft)
20.10.2015 04:30 7,7 C 79 % 1021,6 hPa 0,0 l/m 0,8 km/h (0 Bft) W-NW 290 0 min 0,000 mm 0,0 UV-I 0 W/m 4,3 C 7,7 C 4,8 km/h (1 Bft)
20.10.2015 04:35 7,7 C 79 % 1021,6 hPa 0,0 l/m 0,6 km/h (0 Bft) W 262 0 min 0,000 mm 0,0 UV-I 0 W/m 4,3 C 7,7 C 4,8 km/h (1 Bft)
20.10.2015 04:40 7,7 C 79 % 1021,7 hPa 0,0 l/m 0,2 km/h (0 Bft) W 265 0 min 0,000 mm 0,0 UV-I 0 W/m 4,3 C 7,7 C 3,2 km/h (1 Bft)
20.10.2015 04:45 7,7 C 79 % 1021,7 hPa 0,0 l/m 0,2 km/h (0 Bft) W 271 0 min 0,000 mm 0,0 UV-I 0 W/m 4,3 C 7,7 C 3,2 km/h (1 Bft)
20.10.2015 04:50 7,6 C 79 % 1021,7 hPa 0,0 l/m 0,6 km/h (0 Bft) W 277 0 min 0,000 mm 0,0 UV-I 0 W/m 4,2 C 7,6 C 4,8 km/h (1 Bft)
20.10.2015 04:55 7,6 C 79 % 1021,7 hPa 0,0 l/m 3,0 km/h (1 Bft) W 266 0 min 0,000 mm 0,0 UV-I 0 W/m 4,2 C 7,6 C 8,0 km/h (2 Bft)
20.10.2015 05:00 7,6 C 79 % 1021,7 hPa 0,0 l/m 0,7 km/h (0 Bft) W-SW 249 0 min 0,025 mm 0,0 UV-I 0 W/m 4,2 C 7,6 C 4,8 km/h (1 Bft)
20.10.2015 05:05 7,6 C 79 % 1021,7 hPa 0,0 l/m 0,3 km/h (0 Bft) W-SW 252 0 min 0,000 mm 0,0 UV-I 0 W/m 4,2 C 7,6 C 3,2 km/h (1 Bft)
20.10.2015 05:10 7,6 C 79 % 1021,7 hPa 0,0 l/m 0,2 km/h (0 Bft) W-SW 248 0 min 0,000 mm 0,0 UV-I 0 W/m 4,2 C 7,6 C 4,8 km/h (1 Bft)
20.10.2015 05:15 7,6 C 79 % 1021,7 hPa 0,0 l/m 0,0 km/h (0 Bft) W-SW 257 0 min 0,000 mm 0,0 UV-I 0 W/m 4,2 C 7,6 C 1,6 km/h (1 Bft)
20.10.2015 05:20 7,6 C 79 % 1021,7 hPa 0,0 l/m 0,0 km/h (0 Bft) W-SW 257 0 min 0,000 mm 0,0 UV-I 0 W/m 4,2 C 7,6 C 1,6 km/h (1 Bft)
20.10.2015 05:25 7,6 C 79 % 1021,7 hPa 0,0 l/m 0,2 km/h (0 Bft) W-SW 252 0 min 0,000 mm 0,0 UV-I 0 W/m 4,2 C 7,6 C 4,8 km/h (1 Bft)
20.10.2015 05:30 7,6 C 79 % 1021,6 hPa 0,0 l/m 0,8 km/h (0 Bft) W 281 0 min 0,000 mm 0,0 UV-I 0 W/m 4,2 C 7,6 C 3,2 km/h (1 Bft)
20.10.2015 05:35 7,5 C 79 % 1021,6 hPa 0,0 l/m 0,3 km/h (0 Bft) W-NW 284 0 min 0,000 mm 0,0 UV-I 0 W/m 4,1 C 7,5 C 3,2 km/h (1 Bft)
20.10.2015 05:40 7,5 C 79 % 1021,6 hPa 0,0 l/m 0,8 km/h (0 Bft) W 263 0 min 0,000 mm 0,0 UV-I 0 W/m 4,1 C 7,5 C 6,4 km/h (2 Bft)
20.10.2015 05:45 7,5 C 79 % 1021,6 hPa 0,0 l/m 0,4 km/h (0 Bft) W 279 0 min 0,000 mm 0,0 UV-I 0 W/m 4,1 C 7,5 C 4,8 km/h (1 Bft)
20.10.2015 05:50 7,5 C 79 % 1021,6 hPa 0,0 l/m 0,2 km/h (0 Bft) W-SW 254 0 min 0,000 mm 0,0 UV-I 0 W/m 4,1 C 7,5 C 3,2 km/h (1 Bft)
20.10.2015 05:55 7,4 C 79 % 1021,6 hPa 0,0 l/m 0,0 km/h (0 Bft) W 271 0 min 0,000 mm 0,0 UV-I 0 W/m 4,0 C 7,4 C 1,6 km/h (1 Bft)
20.10.2015 06:00 7,4 C 79 % 1021,6 hPa 0,0 l/m 0,3 km/h (0 Bft) W 266 0 min 0,025 mm 0,0 UV-I 0 W/m 4,0 C 7,4 C 4,8 km/h (1 Bft)
20.10.2015 06:05 7,4 C 79 % 1021,6 hPa 0,0 l/m 0,2 km/h (0 Bft) W 273 0 min 0,000 mm 0,0 UV-I 0 W/m 4,0 C 7,4 C 3,2 km/h (1 Bft)
20.10.2015 06:10 7,4 C 79 % 1021,5 hPa 0,0 l/m 0,3 km/h (0 Bft) W-SW 254 0 min 0,000 mm 0,0 UV-I 0 W/m 4,0 C 7,4 C 4,8 km/h (1 Bft)
20.10.2015 06:15 7,4 C 79 % 1021,5 hPa 0,0 l/m 0,1 km/h (0 Bft) W 271 0 min 0,000 mm 0,0 UV-I 0 W/m 4,0 C 7,4 C 1,6 km/h (1 Bft)
20.10.2015 06:20 7,4 C 79 % 1021,4 hPa 0,0 l/m 0,2 km/h (0 Bft) W 274 0 min 0,000 mm 0,0 UV-I 0 W/m 4,0 C 7,4 C 3,2 km/h (1 Bft)
20.10.2015 06:25 7,3 C 79 % 1021,4 hPa 0,0 l/m 0,0 km/h (0 Bft) W 273 0 min 0,000 mm 0,0 UV-I 0 W/m 3,9 C 7,3 C 1,6 km/h (1 Bft)
20.10.2015 06:30 7,3 C 79 % 1021,4 hPa 0,0 l/m 0,2 km/h (0 Bft) W 281 0 min 0,000 mm 0,0 UV-I 0 W/m 3,9 C 7,3 C 3,2 km/h (1 Bft)
20.10.2015 06:35 7,3 C 79 % 1021,4 hPa 0,0 l/m 0,4 km/h (0 Bft) W 271 0 min 0,000 mm 0,0 UV-I 0 W/m 3,9 C 7,3 C 3,2 km/h (1 Bft)
20.10.2015 06:40 7,3 C 79 % 1021,4 hPa 0,0 l/m 0,9 km/h (0 Bft) W-SW 257 0 min 0,000 mm 0,0 UV-I 0 W/m 3,9 C 7,3 C 4,8 km/h (1 Bft)
20.10.2015 06:45 7,3 C 79 % 1021,4 hPa 0,0 l/m 0,9 km/h (0 Bft) NW 315 0 min 0,000 mm 0,0 UV-I 0 W/m 3,9 C 7,3 C 4,8 km/h (1 Bft)
20.10.2015 06:50 7,3 C 79 % 1021,5 hPa 0,0 l/m 1,6 km/h (1 Bft) W-NW 297 0 min 0,000 mm 0,0 UV-I 0 W/m 3,9 C 7,3 C 4,8 km/h (1 Bft)
20.10.2015 06:55 7,3 C 79 % 1021,5 hPa 0,0 l/m 2,7 km/h (1 Bft) W 273 0 min 0,000 mm 0,0 UV-I 0 W/m 3,9 C 7,3 C 8,0 km/h (2 Bft)
20.10.2015 07:00 7,2 C 79 % 1021,5 hPa 0,0 l/m 1,4 km/h (1 Bft) W 271 0 min 0,026 mm 0,0 UV-I 0 W/m 3,8 C 7,2 C 8,0 km/h (2 Bft)
20.10.2015 07:05 7,2 C 79 % 1021,5 hPa 0,0 l/m 0,0 km/h (0 Bft) W 271 0 min 0,000 mm 0,0 UV-I 0 W/m 3,8 C 7,2 C 0,0 km/h (0 Bft)
20.10.2015 07:10 7,2 C 79 % 1021,5 hPa 0,0 l/m 0,0 km/h (0 Bft) W 271 0 min 0,000 mm 0,0 UV-I 0 W/m 3,8 C 7,2 C 0,0 km/h (0 Bft)
20.10.2015 07:15 7,2 C 79 % 1021,4 hPa 0,0 l/m 0,1 km/h (0 Bft) W 265 0 min 0,000 mm 0,0 UV-I 0 W/m 3,8 C 7,2 C 1,6 km/h (1 Bft)
20.10.2015 07:20 7,2 C 79 % 1021,5 hPa 0,0 l/m 0,3 km/h (0 Bft) W-SW 249 0 min 0,000 mm 0,0 UV-I 0 W/m 3,8 C 7,2 C 4,8 km/h (1 Bft)
20.10.2015 07:25 7,1 C 79 % 1021,6 hPa 0,0 l/m 0,8 km/h (0 Bft) W-NW 301 0 min 0,000 mm 0,0 UV-I 0 W/m 3,7 C 7,1 C 4,8 km/h (1 Bft)
20.10.2015 07:30 7,1 C 79 % 1021,6 hPa 0,0 l/m 2,1 km/h (1 Bft) W-SW 254 0 min 0,000 mm 0,0 UV-I 0 W/m 3,7 C 7,1 C 11,3 km/h (2 Bft)
20.10.2015 07:35 7,1 C 79 % 1021,6 hPa 0,0 l/m 0,4 km/h (0 Bft) W 271 0 min 0,000 mm 0,0 UV-I 0 W/m 3,7 C 7,1 C 9,7 km/h (2 Bft)
20.10.2015 07:40 7,0 C 79 % 1021,6 hPa 0,0 l/m 0,0 km/h (0 Bft) W 279 0 min 0,000 mm 0,0 UV-I 0 W/m 3,6 C 7,0 C 1,6 km/h (1 Bft)
20.10.2015 07:45 6,9 C 79 % 1021,7 hPa 0,0 l/m 0,0 km/h (0 Bft) W-SW 240 0 min 0,000 mm 0,0 UV-I 0 W/m 3,5 C 6,9 C 0,0 km/h (0 Bft)
20.10.2015 07:50 6,9 C 79 % 1021,8 hPa 0,0 l/m 0,0 km/h (0 Bft) W-NW 284 0 min 0,000 mm 0,0 UV-I 0 W/m 3,5 C 6,9 C 0,0 km/h (0 Bft)
20.10.2015 07:55 6,9 C 79 % 1021,8 hPa 0,0 l/m 0,3 km/h (0 Bft) W-NW 285 0 min 0,000 mm 0,0 UV-I 0 W/m 3,5 C 6,9 C 3,2 km/h (1 Bft)
20.10.2015 08:00 6,9 C 79 % 1021,8 hPa 0,0 l/m 0,2 km/h (0 Bft) W-SW 241 0 min 0,000 mm 0,0 UV-I 0 W/m 3,5 C 6,9 C 3,2 km/h (1 Bft)
20.10.2015 08:05 6,8 C 79 % 1021,8 hPa 0,0 l/m 2,6 km/h (1 Bft) W 278 0 min 0,000 mm 0,0 UV-I 0 W/m 3,4 C 6,8 C 9,7 km/h (2 Bft)
20.10.2015 08:10 6,8 C 79 % 1022,0 hPa 0,0 l/m 0,9 km/h (0 Bft) NW 309 0 min 0,000 mm 0,0 UV-I 0 W/m 3,4 C 6,8 C 8,0 km/h (2 Bft)
20.10.2015 08:15 6,8 C 79 % 1022,0 hPa 0,0 l/m 1,0 km/h (0 Bft) W-SW 249 0 min 0,000 mm 0,0 UV-I 0 W/m 3,4 C 6,8 C 8,0 km/h (2 Bft)
20.10.2015 08:20 6,8 C 79 % 1022,0 hPa 0,0 l/m 1,8 km/h (1 Bft) W-NW 292 0 min 0,000 mm 0,0 UV-I 4 W/m 3,4 C 6,8 C 9,7 km/h (2 Bft)
20.10.2015 08:25 6,8 C 79 % 1022,0 hPa 0,0 l/m 0,1 km/h (0 Bft) N-NW 333 0 min 0,000 mm 0,0 UV-I 7 W/m 3,4 C 6,8 C 3,2 km/h (1 Bft)
20.10.2015 08:30 6,8 C 79 % 1022,0 hPa 0,0 l/m 0,0 km/h (0 Bft) NW 313 0 min 0,000 mm 0,0 UV-I 11 W/m 3,4 C 6,8 C 0,0 km/h (0 Bft)
20.10.2015 08:35 6,8 C 79 % 1022,0 hPa 0,0 l/m 0,5 km/h (0 Bft) W-NW 298 0 min 0,000 mm 0,0 UV-I 12 W/m 3,4 C 6,8 C 8,0 km/h (2 Bft)
20.10.2015 08:40 6,8 C 79 % 1022,0 hPa 0,0 l/m 0,5 km/h (0 Bft) W-NW 300 0 min 0,000 mm 0,0 UV-I 10 W/m 3,4 C 6,8 C 8,0 km/h (2 Bft)
20.10.2015 08:45 6,8 C 79 % 1022,1 hPa 0,0 l/m 0,1 km/h (0 Bft) NW 315 0 min 0,000 mm 0,0 UV-I 10 W/m 3,4 C 6,8 C 3,2 km/h (1 Bft)
20.10.2015 08:50 6,8 C 79 % 1022,2 hPa 0,0 l/m 0,0 km/h (0 Bft) NW 306 0 min 0,000 mm 0,0 UV-I 16 W/m 3,4 C 6,8 C 0,0 km/h (0 Bft)
20.10.2015 08:55 6,8 C 79 % 1022,1 hPa 0,0 l/m 1,7 km/h (1 Bft) W-NW 296 0 min 0,000 mm 0,0 UV-I 26 W/m 3,4 C 6,8 C 12,9 km/h (3 Bft)
20.10.2015 09:00 6,8 C 79 % 1022,1 hPa 0,0 l/m 0,0 km/h (0 Bft) S-SO 152 0 min 0,000 mm 0,0 UV-I 34 W/m 3,4 C 6,8 C 1,6 km/h (1 Bft)
20.10.2015 09:05 6,8 C 79 % 1022,1 hPa 0,0 l/m 0,3 km/h (0 Bft) W-NW 291 0 min 0,000 mm 0,0 UV-I 44 W/m 3,4 C 6,8 C 4,8 km/h (1 Bft)
20.10.2015 09:10 6,7 C 79 % 1022,1 hPa 0,0 l/m 1,6 km/h (1 Bft) NW 315 0 min 0,000 mm 0,0 UV-I 55 W/m 3,3 C 6,7 C 9,7 km/h (2 Bft)
20.10.2015 09:15 6,7 C 79 % 1022,1 hPa 0,0 l/m 0,1 km/h (0 Bft) NW 305 0 min 0,000 mm 0,0 UV-I 52 W/m 3,3 C 6,7 C 3,2 km/h (1 Bft)
20.10.2015 09:20 6,9 C 79 % 1022,1 hPa 0,0 l/m 0,0 km/h (0 Bft) W-NW 287 0 min 0,000 mm 0,0 UV-I 96 W/m 3,5 C 6,9 C 0,0 km/h (0 Bft)
20.10.2015 09:25 7,1 C 80 % 1022,2 hPa 0,0 l/m 0,0 km/h (0 Bft) W-NW 300 0 min 0,000 mm 0,0 UV-I 81 W/m 3,9 C 7,1 C 0,0 km/h (0 Bft)
20.10.2015 09:30 6,9 C 80 % 1022,3 hPa 0,0 l/m 0,1 km/h (0 Bft) W-NW 284 0 min 0,000 mm 0,0 UV-I 79 W/m 3,7 C 6,9 C 3,2 km/h (1 Bft)
20.10.2015 09:35 6,9 C 80 % 1022,3 hPa 0,0 l/m 1,1 km/h (1 Bft) W 271 0 min 0,000 mm 0,0 UV-I 113 W/m 3,7 C 6,9 C 8,0 km/h (2 Bft)
20.10.2015 09:40 6,9 C 80 % 1022,3 hPa 0,0 l/m 3,1 km/h (1 Bft) W-NW 301 0 min 0,000 mm 0,0 UV-I 112 W/m 3,7 C 6,9 C 11,3 km/h (2 Bft)
20.10.2015 09:45 7,0 C 80 % 1022,2 hPa 0,0 l/m 0,9 km/h (0 Bft) W-NW 284 0 min 0,000 mm 0,0 UV-I 77 W/m 3,8 C 7,0 C 8,0 km/h (2 Bft)
20.10.2015 09:50 7,1 C 80 % 1022,2 hPa 0,0 l/m 0,0 km/h (0 Bft) W-SW 239 0 min 0,000 mm 0,3 UV-I 89 W/m 3,9 C 7,1 C 0,0 km/h (0 Bft)
20.10.2015 09:55 7,1 C 80 % 1022,3 hPa 0,0 l/m 0,4 km/h (0 Bft) W 281 0 min 0,000 mm 0,5 UV-I 110 W/m 3,9 C 7,1 C 6,4 km/h (2 Bft)
20.10.2015 10:00 7,2 C 80 % 1022,4 hPa 0,0 l/m 0,0 km/h (0 Bft) SW 223 0 min 0,000 mm 0,5 UV-I 99 W/m 4,0 C 7,2 C 0,0 km/h (0 Bft)
20.10.2015 10:05 7,2 C 80 % 1022,3 hPa 0,0 l/m 0,3 km/h (0 Bft) W 267 0 min 0,051 mm 0,6 UV-I 128 W/m 4,0 C 7,2 C 4,8 km/h (1 Bft)
20.10.2015 10:10 7,2 C 80 % 1022,3 hPa 0,0 l/m 0,3 km/h (0 Bft) W-SW 257 0 min 0,000 mm 0,7 UV-I 144 W/m 4,0 C 7,2 C 4,8 km/h (1 Bft)
20.10.2015 10:15 7,8 C 80 % 1022,2 hPa 0,0 l/m 0,0 km/h (0 Bft) W-SW 240 5 min 0,000 mm 0,8 UV-I 247 W/m 4,6 C 7,8 C 0,0 km/h (0 Bft)
20.10.2015 10:20 7,9 C 80 % 1022,2 hPa 0,0 l/m 0,9 km/h (0 Bft) W-SW 252 5 min 0,000 mm 0,8 UV-I 282 W/m 4,7 C 7,9 C 6,4 km/h (2 Bft)
20.10.2015 10:25 8,1 C 81 % 1022,2 hPa 0,0 l/m 2,5 km/h (1 Bft) S 187 5 min 0,000 mm 0,8 UV-I 278 W/m 5,0 C 8,1 C 12,9 km/h (3 Bft)
20.10.2015 10:30 8,2 C 81 % 1022,2 hPa 0,0 l/m 1,3 km/h (1 Bft) W 276 5 min 0,000 mm 0,9 UV-I 301 W/m 5,1 C 8,2 C 6,4 km/h (2 Bft)
20.10.2015 10:35 8,4 C 80 % 1022,2 hPa 0,0 l/m 3,7 km/h (1 Bft) W-NW 292 5 min 0,000 mm 0,9 UV-I 324 W/m 5,2 C 8,4 C 12,9 km/h (3 Bft)
20.10.2015 10:40 8,6 C 80 % 1022,2 hPa 0,0 l/m 2,2 km/h (1 Bft) W 274 5 min 0,000 mm 1,0 UV-I 322 W/m 5,3 C 8,6 C 8,0 km/h (2 Bft)
20.10.2015 10:45 8,8 C 80 % 1022,2 hPa 0,0 l/m 2,5 km/h (1 Bft) S-SW 210 5 min 0,000 mm 1,0 UV-I 322 W/m 5,5 C 8,8 C 11,3 km/h (2 Bft)
20.10.2015 10:50 9,3 C 79 % 1022,2 hPa 0,0 l/m 0,3 km/h (0 Bft) W 265 5 min 0,000 mm 1,1 UV-I 318 W/m 5,8 C 9,3 C 4,8 km/h (1 Bft)
20.10.2015 10:55 9,4 C 79 % 1022,3 hPa 0,0 l/m 1,4 km/h (1 Bft) N-NW 339 5 min 0,000 mm 1,1 UV-I 328 W/m 5,9 C 9,4 C 9,7 km/h (2 Bft)
20.10.2015 11:00 9,6 C 78 % 1022,2 hPa 0,0 l/m 1,8 km/h (1 Bft) W 275 5 min 0,000 mm 1,2 UV-I 339 W/m 6,0 C 9,6 C 8,0 km/h (2 Bft)
20.10.2015 11:05 9,6 C 78 % 1022,3 hPa 0,0 l/m 3,1 km/h (1 Bft) W 267 5 min 0,127 mm 1,2 UV-I 336 W/m 6,0 C 9,6 C 11,3 km/h (2 Bft)
20.10.2015 11:10 10,2 C 78 % 1022,3 hPa 0,0 l/m 0,3 km/h (0 Bft) NW 307 5 min 0,000 mm 1,3 UV-I 356 W/m 6,5 C 10,2 C 4,8 km/h (1 Bft)
20.10.2015 11:15 9,9 C 78 % 1022,4 hPa 0,0 l/m 2,9 km/h (1 Bft) W-NW 290 5 min 0,000 mm 1,3 UV-I 383 W/m 6,2 C 9,9 C 9,7 km/h (2 Bft)
20.10.2015 11:20 10,2 C 76 % 1022,4 hPa 0,0 l/m 1,1 km/h (1 Bft) NW 318 5 min 0,000 mm 1,4 UV-I 391 W/m 6,2 C 10,2 C 8,0 km/h (2 Bft)
20.10.2015 11:25 11,1 C 75 % 1022,2 hPa 0,0 l/m 0,6 km/h (0 Bft) NW 305 5 min 0,000 mm 1,4 UV-I 393 W/m 6,8 C 11,1 C 8,0 km/h (2 Bft)
20.10.2015 11:30 11,3 C 75 % 1022,2 hPa 0,0 l/m 0,9 km/h (0 Bft) N-NW 342 5 min 0,000 mm 1,4 UV-I 386 W/m 7,0 C 11,3 C 6,4 km/h (2 Bft)
20.10.2015 11:35 11,2 C 74 % 1022,2 hPa 0,0 l/m 1,5 km/h (1 Bft) W-NW 300 5 min 0,000 mm 1,4 UV-I 391 W/m 6,7 C 11,2 C 9,7 km/h (2 Bft)
20.10.2015 11:40 10,9 C 74 % 1022,3 hPa 0,0 l/m 1,9 km/h (1 Bft) W-NW 288 5 min 0,000 mm 1,5 UV-I 407 W/m 6,5 C 10,9 C 9,7 km/h (2 Bft)
20.10.2015 11:45 11,1 C 75 % 1022,2 hPa 0,0 l/m 0,4 km/h (0 Bft) NW 311 5 min 0,000 mm 1,6 UV-I 425 W/m 6,8 C 11,1 C 6,4 km/h (2 Bft)
20.10.2015 11:50 11,4 C 73 % 1022,2 hPa 0,0 l/m 2,0 km/h (1 Bft) W-NW 291 5 min 0,000 mm 1,5 UV-I 387 W/m 6,7 C 11,4 C 12,9 km/h (3 Bft)
20.10.2015 11:55 11,1 C 74 % 1022,1 hPa 0,0 l/m 7,4 km/h (2 Bft) W-NW 294 5 min 0,000 mm 1,6 UV-I 422 W/m 6,6 C 10,4 C 16,1 km/h (3 Bft)
20.10.2015 12:00 11,3 C 74 % 1022,1 hPa 0,0 l/m 2,8 km/h (1 Bft) NW 310 5 min 0,000 mm 1,7 UV-I 461 W/m 6,8 C 11,3 C 14,5 km/h (3 Bft)
20.10.2015 12:05 11,3 C 73 % 1022,0 hPa 0,0 l/m 4,1 km/h (1 Bft) W-NW 293 5 min 0,177 mm 1,5 UV-I 367 W/m 6,6 C 11,3 C 11,3 km/h (2 Bft)
20.10.2015 12:10 11,2 C 73 % 1022,1 hPa 0,0 l/m 3,1 km/h (1 Bft) W-NW 287 0 min 0,000 mm 1,4 UV-I 236 W/m 6,5 C 11,2 C 11,3 km/h (2 Bft)
20.10.2015 12:15 11,0 C 75 % 1022,2 hPa 0,0 l/m 1,3 km/h (1 Bft) W 269 5 min 0,000 mm 1,5 UV-I 279 W/m 6,7 C 11,0 C 4,8 km/h (1 Bft)
20.10.2015 12:20 11,2 C 74 % 1022,3 hPa 0,0 l/m 2,7 km/h (1 Bft) N-NW 340 5 min 0,000 mm 1,5 UV-I 271 W/m 6,7 C 11,2 C 8,0 km/h (2 Bft)
20.10.2015 12:25 11,6 C 73 % 1022,2 hPa 0,0 l/m 3,0 km/h (1 Bft) W-NW 296 5 min 0,000 mm 1,8 UV-I 450 W/m 6,9 C 11,6 C 11,3 km/h (2 Bft)
20.10.2015 12:30 11,9 C 71 % 1022,2 hPa 0,0 l/m 3,2 km/h (1 Bft) W-NW 290 5 min 0,000 mm 1,7 UV-I 487 W/m 6,8 C 11,9 C 16,1 km/h (3 Bft)
20.10.2015 12:35 11,8 C 73 % 1022,1 hPa 0,0 l/m 2,0 km/h (1 Bft) W-SW 251 5 min 0,000 mm 1,9 UV-I 511 W/m 7,1 C 11,8 C 9,7 km/h (2 Bft)
20.10.2015 12:40 11,7 C 72 % 1022,1 hPa 0,0 l/m 4,3 km/h (1 Bft) W-NW 298 5 min 0,000 mm 1,8 UV-I 536 W/m 6,8 C 11,7 C 16,1 km/h (3 Bft)
20.10.2015 12:45 11,7 C 70 % 1022,1 hPa 0,0 l/m 5,0 km/h (1 Bft) NW 315 0 min 0,000 mm 1,4 UV-I 232 W/m 6,4 C 11,7 C 12,9 km/h (3 Bft)
20.10.2015 12:50 11,7 C 71 % 1022,0 hPa 0,0 l/m 2,3 km/h (1 Bft) NW 307 0 min 0,000 mm 1,4 UV-I 212 W/m 6,6 C 11,7 C 11,3 km/h (2 Bft)
20.10.2015 12:55 11,2 C 73 % 1022,1 hPa 0,0 l/m 4,2 km/h (1 Bft) NW 304 0 min 0,000 mm 1,4 UV-I 217 W/m 6,5 C 11,2 C 11,3 km/h (2 Bft)
20.10.2015 13:00 11,3 C 72 % 1022,1 hPa 0,0 l/m 2,1 km/h (1 Bft) W-NW 288 5 min 0,000 mm 1,8 UV-I 421 W/m 6,4 C 11,3 C 11,3 km/h (2 Bft)
20.10.2015 13:05 12,4 C 70 % 1022,0 hPa 0,0 l/m 1,7 km/h (1 Bft) NW 304 5 min 0,178 mm 1,9 UV-I 542 W/m 7,1 C 12,4 C 8,0 km/h (2 Bft)
20.10.2015 13:10 12,9 C 66 % 1022,0 hPa 0,0 l/m 1,7 km/h (1 Bft) W 279 5 min 0,000 mm 1,9 UV-I 524 W/m 6,7 C 12,9 C 9,7 km/h (2 Bft)
20.10.2015 13:15 12,7 C 68 % 1021,9 hPa 0,0 l/m 1,2 km/h (1 Bft) N 5 0 min 0,000 mm 1,3 UV-I 150 W/m 6,9 C 12,7 C 11,3 km/h (2 Bft)
20.10.2015 13:20 12,2 C 68 % 1021,9 hPa 0,0 l/m 0,7 km/h (0 Bft) N-NW 331 0 min 0,000 mm 1,2 UV-I 129 W/m 6,5 C 12,2 C 4,8 km/h (1 Bft)
20.10.2015 13:25 11,9 C 69 % 1021,9 hPa 0,0 l/m 0,5 km/h (0 Bft) W-NW 299 0 min 0,000 mm 1,2 UV-I 132 W/m 6,4 C 11,9 C 4,8 km/h (1 Bft)
20.10.2015 13:30 11,6 C 68 % 1021,9 hPa 0,0 l/m 1,9 km/h (1 Bft) NW 319 0 min 0,000 mm 1,3 UV-I 153 W/m 5,9 C 11,6 C 12,9 km/h (3 Bft)
20.10.2015 13:35 11,6 C 69 % 1021,9 hPa 0,0 l/m 1,0 km/h (0 Bft) W-NW 297 0 min 0,000 mm 1,5 UV-I 180 W/m 6,1 C 11,6 C 9,7 km/h (2 Bft)
20.10.2015 13:40 12,7 C 67 % 1021,8 hPa 0,0 l/m 0,2 km/h (0 Bft) N-NW 330 5 min 0,000 mm 1,9 UV-I 504 W/m 6,7 C 12,7 C 3,2 km/h (1 Bft)
20.10.2015 13:45 13,4 C 62 % 1021,8 hPa 0,0 l/m 0,7 km/h (0 Bft) W-NW 292 5 min 0,000 mm 1,9 UV-I 504 W/m 6,3 C 13,4 C 6,4 km/h (2 Bft)
20.10.2015 13:50 12,4 C 63 % 1021,7 hPa 0,0 l/m 2,1 km/h (1 Bft) W-NW 288 5 min 0,000 mm 1,9 UV-I 321 W/m 5,6 C 12,4 C 11,3 km/h (2 Bft)
20.10.2015 13:55 12,3 C 66 % 1021,7 hPa 0,0 l/m 1,8 km/h (1 Bft) NW 304 5 min 0,000 mm 1,9 UV-I 506 W/m 6,1 C 12,3 C 8,0 km/h (2 Bft)
20.10.2015 14:00 12,9 C 64 % 1021,6 hPa 0,0 l/m 0,0 km/h (0 Bft) W-NW 300 5 min 0,000 mm 1,7 UV-I 489 W/m 6,3 C 12,9 C 1,6 km/h (1 Bft)
20.10.2015 14:05 12,5 C 64 % 1021,6 hPa 0,0 l/m 4,0 km/h (1 Bft) W 275 0 min 0,178 mm 1,2 UV-I 190 W/m 5,9 C 12,5 C 11,3 km/h (2 Bft)
20.10.2015 14:10 11,8 C 67 % 1021,7 hPa 0,0 l/m 4,9 km/h (1 Bft) W 263 0 min 0,000 mm 1,1 UV-I 173 W/m 5,9 C 11,8 C 12,9 km/h (3 Bft)
20.10.2015 14:15 11,6 C 70 % 1021,6 hPa 0,0 l/m 1,6 km/h (1 Bft) N-NW 339 0 min 0,000 mm 1,2 UV-I 149 W/m 6,3 C 11,6 C 9,7 km/h (2 Bft)
20.10.2015 14:20 11,7 C 69 % 1021,6 hPa 0,0 l/m 0,6 km/h (0 Bft) NW 304 0 min 0,000 mm 1,4 UV-I 145 W/m 6,2 C 11,7 C 6,4 km/h (2 Bft)
20.10.2015 14:25 11,7 C 69 % 1021,6 hPa 0,0 l/m 0,4 km/h (0 Bft) W-NW 298 0 min 0,000 mm 1,5 UV-I 159 W/m 6,2 C 11,7 C 4,8 km/h (1 Bft)
20.10.2015 14:30 11,8 C 67 % 1021,5 hPa 0,0 l/m 2,1 km/h (1 Bft) W-NW 286 5 min 0,000 mm 1,6 UV-I 373 W/m 5,9 C 11,8 C 9,7 km/h (2 Bft)
20.10.2015 14:35 11,6 C 67 % 1021,4 hPa 0,0 l/m 2,3 km/h (1 Bft) W-NW 283 0 min 0,000 mm 1,3 UV-I 94 W/m 5,7 C 11,6 C 8,0 km/h (2 Bft)
20.10.2015 14:40 11,3 C 67 % 1021,4 hPa 0,0 l/m 1,7 km/h (1 Bft) W-NW 293 0 min 0,000 mm 1,2 UV-I 99 W/m 5,4 C 11,3 C 11,3 km/h (2 Bft)
20.10.2015 14:45 11,2 C 69 % 1021,4 hPa 0,0 l/m 1,1 km/h (1 Bft) NW 304 0 min 0,000 mm 1,2 UV-I 114 W/m 5,7 C 11,2 C 8,0 km/h (2 Bft)
20.10.2015 14:50 11,2 C 70 % 1021,3 hPa 0,0 l/m 0,4 km/h (0 Bft) W-NW 290 0 min 0,000 mm 1,1 UV-I 102 W/m 5,9 C 11,2 C 4,8 km/h (1 Bft)
20.10.2015 14:55 11,8 C 70 % 1021,3 hPa 0,0 l/m 0,6 km/h (0 Bft) NW 306 5 min 0,000 mm 1,4 UV-I 307 W/m 6,5 C 11,8 C 6,4 km/h (2 Bft)
20.10.2015 15:00 12,1 C 70 % 1021,5 hPa 0,0 l/m 3,4 km/h (1 Bft) W-NW 294 5 min 0,000 mm 1,5 UV-I 447 W/m 6,8 C 12,1 C 11,3 km/h (2 Bft)
20.10.2015 15:05 12,6 C 69 % 1021,4 hPa 0,0 l/m 1,3 km/h (1 Bft) W-SW 257 5 min 0,102 mm 1,4 UV-I 431 W/m 7,1 C 12,6 C 9,7 km/h (2 Bft)
20.10.2015 15:10 12,2 C 70 % 1021,3 hPa 0,0 l/m 6,0 km/h (2 Bft) SW 227 5 min 0,000 mm 1,4 UV-I 410 W/m 6,9 C 12,2 C 19,3 km/h (3 Bft)
20.10.2015 15:15 11,8 C 71 % 1021,3 hPa 0,0 l/m 5,6 km/h (1 Bft) W 279 5 min 0,000 mm 1,4 UV-I 414 W/m 6,7 C 11,8 C 9,7 km/h (2 Bft)
20.10.2015 15:20 11,6 C 72 % 1021,3 hPa 0,0 l/m 7,1 km/h (2 Bft) W 278 5 min 0,000 mm 1,3 UV-I 408 W/m 6,7 C 11,1 C 16,1 km/h (3 Bft)
20.10.2015 15:25 11,4 C 74 % 1021,4 hPa 0,0 l/m 4,9 km/h (1 Bft) W-SW 248 5 min 0,000 mm 1,2 UV-I 404 W/m 6,9 C 11,4 C 12,9 km/h (3 Bft)
20.10.2015 15:30 12,1 C 73 % 1021,4 hPa 0,0 l/m 1,8 km/h (1 Bft) SW 217 5 min 0,000 mm 1,2 UV-I 463 W/m 7,4 C 12,1 C 8,0 km/h (2 Bft)
20.10.2015 15:35 12,1 C 73 % 1021,4 hPa 0,0 l/m 2,2 km/h (1 Bft) W-NW 298 5 min 0,000 mm 1,0 UV-I 475 W/m 7,4 C 12,1 C 12,9 km/h (3 Bft)
20.10.2015 15:40 12,4 C 72 % 1021,4 hPa 0,0 l/m 2,5 km/h (1 Bft) W 261 5 min 0,000 mm 0,9 UV-I 456 W/m 7,5 C 12,4 C 11,3 km/h (2 Bft)
20.10.2015 15:45 12,2 C 71 % 1021,4 hPa 0,0 l/m 3,3 km/h (1 Bft) W-NW 291 5 min 0,000 mm 0,8 UV-I 374 W/m 7,1 C 12,2 C 11,3 km/h (2 Bft)
20.10.2015 15:50 11,7 C 73 % 1021,3 hPa 0,0 l/m 2,6 km/h (1 Bft) W-SW 239 5 min 0,000 mm 0,7 UV-I 279 W/m 7,0 C 11,7 C 11,3 km/h (2 Bft)
20.10.2015 15:55 11,6 C 75 % 1021,4 hPa 0,0 l/m 3,5 km/h (1 Bft) NW 306 5 min 0,000 mm 0,8 UV-I 420 W/m 7,3 C 11,6 C 9,7 km/h (2 Bft)
20.10.2015 16:00 12,3 C 72 % 1021,3 hPa 0,0 l/m 2,8 km/h (1 Bft) NW 305 5 min 0,000 mm 0,8 UV-I 450 W/m 7,4 C 12,3 C 12,9 km/h (3 Bft)
20.10.2015 16:05 12,1 C 72 % 1021,3 hPa 0,0 l/m 3,6 km/h (1 Bft) W-NW 283 5 min 0,203 mm 0,7 UV-I 280 W/m 7,2 C 12,1 C 12,9 km/h (3 Bft)
20.10.2015 16:10 12,0 C 73 % 1021,4 hPa 0,0 l/m 0,7 km/h (0 Bft) W-NW 294 5 min 0,000 mm 0,7 UV-I 248 W/m 7,3 C 12,0 C 4,8 km/h (1 Bft)
20.10.2015 16:15 12,4 C 72 % 1021,3 hPa 0,0 l/m 0,6 km/h (0 Bft) W-NW 294 5 min 0,000 mm 0,7 UV-I 361 W/m 7,5 C 12,4 C 6,4 km/h (2 Bft)
20.10.2015 16:20 12,3 C 72 % 1021,4 hPa 0,0 l/m 2,9 km/h (1 Bft) W 274 5 min 0,000 mm 0,7 UV-I 288 W/m 7,4 C 12,3 C 9,7 km/h (2 Bft)
20.10.2015 16:25 11,8 C 73 % 1021,4 hPa 0,0 l/m 3,9 km/h (1 Bft) W-NW 289 5 min 0,000 mm 0,7 UV-I 257 W/m 7,1 C 11,8 C 11,3 km/h (2 Bft)
20.10.2015 16:30 11,7 C 74 % 1021,4 hPa 0,0 l/m 3,2 km/h (1 Bft) NW 304 5 min 0,000 mm 0,6 UV-I 239 W/m 7,2 C 11,7 C 9,7 km/h (2 Bft)
20.10.2015 16:35 11,6 C 74 % 1021,4 hPa 0,0 l/m 1,7 km/h (1 Bft) W-NW 296 0 min 0,000 mm 0,5 UV-I 138 W/m 7,1 C 11,6 C 11,3 km/h (2 Bft)
20.10.2015 16:40 11,2 C 76 % 1021,4 hPa 0,0 l/m 1,4 km/h (1 Bft) W-SW 252 5 min 0,000 mm 0,5 UV-I 176 W/m 7,1 C 11,2 C 9,7 km/h (2 Bft)
20.10.2015 16:45 11,3 C 75 % 1021,4 hPa 0,0 l/m 1,0 km/h (0 Bft) W-NW 287 5 min 0,000 mm 0,3 UV-I 162 W/m 7,0 C 11,3 C 8,0 km/h (2 Bft)
20.10.2015 16:50 11,1 C 76 % 1021,5 hPa 0,0 l/m 1,5 km/h (1 Bft) W-SW 252 0 min 0,000 mm 0,0 UV-I 118 W/m 7,0 C 11,1 C 8,0 km/h (2 Bft)
20.10.2015 16:55 10,8 C 76 % 1021,5 hPa 0,0 l/m 0,6 km/h (0 Bft) W 273 0 min 0,000 mm 0,0 UV-I 89 W/m 6,7 C 10,8 C 6,4 km/h (2 Bft)
20.10.2015 17:00 10,8 C 77 % 1021,6 hPa 0,0 l/m 0,0 km/h (0 Bft) W-SW 240 0 min 0,000 mm 0,0 UV-I 72 W/m 6,9 C 10,8 C 0,0 km/h (0 Bft)
20.10.2015 17:05 10,8 C 77 % 1021,6 hPa 0,0 l/m 0,0 km/h (0 Bft) W 261 0 min 0,101 mm 0,0 UV-I 55 W/m 6,9 C 10,8 C 0,0 km/h (0 Bft)
20.10.2015 17:10 10,8 C 77 % 1021,5 hPa 0,0 l/m 0,0 km/h (0 Bft) NW 312 0 min 0,000 mm 0,0 UV-I 37 W/m 6,9 C 10,8 C 0,0 km/h (0 Bft)
20.10.2015 17:15 10,7 C 77 % 1021,6 hPa 0,0 l/m 0,1 km/h (0 Bft) W-NW 296 0 min 0,000 mm 0,0 UV-I 27 W/m 6,8 C 10,7 C 1,6 km/h (1 Bft)
20.10.2015 17:20 10,5 C 77 % 1021,6 hPa 0,0 l/m 0,2 km/h (0 Bft) W 267 0 min 0,000 mm 0,0 UV-I 28 W/m 6,6 C 10,5 C 3,2 km/h (1 Bft)
20.10.2015 17:25 10,4 C 78 % 1021,6 hPa 0,0 l/m 0,1 km/h (0 Bft) W-SW 254 0 min 0,000 mm 0,0 UV-I 32 W/m 6,7 C 10,4 C 3,2 km/h (1 Bft)
20.10.2015 17:30 10,3 C 78 % 1021,6 hPa 0,0 l/m 0,0 km/h (0 Bft) W-NW 300 0 min 0,000 mm 0,0 UV-I 29 W/m 6,6 C 10,3 C 1,6 km/h (1 Bft)
20.10.2015 17:35 10,2 C 78 % 1021,7 hPa 0,0 l/m 0,4 km/h (0 Bft) W-NW 302 0 min 0,000 mm 0,0 UV-I 23 W/m 6,5 C 10,2 C 4,8 km/h (1 Bft)
20.10.2015 17:40 10,2 C 78 % 1021,7 hPa 0,0 l/m 0,2 km/h (0 Bft) W-NW 282 0 min 0,000 mm 0,0 UV-I 16 W/m 6,5 C 10,2 C 4,8 km/h (1 Bft)
20.10.2015 17:45 10,2 C 78 % 1021,7 hPa 0,0 l/m 0,0 km/h (0 Bft) W-NW 285 0 min 0,000 mm 0,0 UV-I 11 W/m 6,5 C 10,2 C 0,0 km/h (0 Bft)
20.10.2015 17:50 10,1 C 78 % 1021,7 hPa 0,0 l/m 0,0 km/h (0 Bft) W-NW 302 0 min 0,000 mm 0,0 UV-I 9 W/m 6,4 C 10,1 C 1,6 km/h (1 Bft)
20.10.2015 17:55 10,1 C 78 % 1021,7 hPa 0,0 l/m 0,0 km/h (0 Bft) W-NW 295 0 min 0,000 mm 0,0 UV-I 4 W/m 6,4 C 10,1 C 1,6 km/h (1 Bft)
20.10.2015 18:00 10,0 C 79 % 1021,7 hPa 0,0 l/m 0,0 km/h (0 Bft) W 261 0 min 0,000 mm 0,0 UV-I 0 W/m 6,5 C 10,0 C 1,6 km/h (1 Bft)
20.10.2015 18:05 9,9 C 79 % 1021,8 hPa 0,0 l/m 0,0 km/h (0 Bft) W-SW 253 0 min 0,026 mm 0,0 UV-I 0 W/m 6,4 C 9,9 C 1,6 km/h (1 Bft)
20.10.2015 18:10 9,9 C 79 % 1021,8 hPa 0,0 l/m 0,1 km/h (0 Bft) W 270 0 min 0,000 mm 0,0 UV-I 0 W/m 6,4 C 9,9 C 1,6 km/h (1 Bft)
20.10.2015 18:15 9,8 C 79 % 1021,9 hPa 0,0 l/m 0,4 km/h (0 Bft) W-NW 299 0 min 0,000 mm 0,0 UV-I 0 W/m 6,3 C 9,8 C 3,2 km/h (1 Bft)
20.10.2015 18:20 9,8 C 79 % 1022,0 hPa 0,0 l/m 0,0 km/h (0 Bft) W-SW 238 0 min 0,000 mm 0,0 UV-I 0 W/m 6,3 C 9,8 C 0,0 km/h (0 Bft)
20.10.2015 18:25 9,7 C 79 % 1022,0 hPa 0,0 l/m 0,0 km/h (0 Bft) SW 214 0 min 0,000 mm 0,0 UV-I 0 W/m 6,2 C 9,7 C 1,6 km/h (1 Bft)
20.10.2015 18:30 9,7 C 79 % 1022,1 hPa 0,0 l/m 0,0 km/h (0 Bft) SW 214 0 min 0,000 mm 0,0 UV-I 0 W/m 6,2 C 9,7 C 0,0 km/h (0 Bft)
20.10.2015 18:35 9,7 C 79 % 1022,2 hPa 0,0 l/m 0,0 km/h (0 Bft) SW 234 0 min 0,000 mm 0,0 UV-I 0 W/m 6,2 C 9,7 C 0,0 km/h (0 Bft)
20.10.2015 18:40 9,7 C 79 % 1022,1 hPa 0,0 l/m 0,0 km/h (0 Bft) SW 234 0 min 0,000 mm 0,0 UV-I 0 W/m 6,2 C 9,7 C 0,0 km/h (0 Bft)
20.10.2015 18:45 9,7 C 79 % 1022,1 hPa 0,0 l/m 0,0 km/h (0 Bft) W-SW 244 0 min 0,000 mm 0,0 UV-I 0 W/m 6,2 C 9,7 C 0,0 km/h (0 Bft)
20.10.2015 18:50 9,7 C 79 % 1022,1 hPa 0,0 l/m 0,0 km/h (0 Bft) W-SW 244 0 min 0,000 mm 0,0 UV-I 0 W/m 6,2 C 9,7 C 0,0 km/h (0 Bft)
20.10.2015 18:55 9,6 C 79 % 1022,3 hPa 0,0 l/m 0,0 km/h (0 Bft) W-SW 244 0 min 0,000 mm 0,0 UV-I 0 W/m 6,1 C 9,6 C 0,0 km/h (0 Bft)
20.10.2015 19:00 9,6 C 79 % 1022,2 hPa 0,0 l/m 0,0 km/h (0 Bft) W-SW 244 0 min 0,000 mm 0,0 UV-I 0 W/m 6,1 C 9,6 C 0,0 km/h (0 Bft)
20.10.2015 19:05 9,6 C 79 % 1022,3 hPa 0,0 l/m 0,0 km/h (0 Bft) W-SW 244 0 min 0,000 mm 0,0 UV-I 0 W/m 6,1 C 9,6 C 0,0 km/h (0 Bft)
20.10.2015 19:10 9,5 C 79 % 1022,4 hPa 0,0 l/m 0,0 km/h (0 Bft) W 261 0 min 0,000 mm 0,0 UV-I 0 W/m 6,0 C 9,5 C 1,6 km/h (1 Bft)
20.10.2015 19:15 9,5 C 79 % 1022,4 hPa 0,0 l/m 0,0 km/h (0 Bft) SW 235 0 min 0,000 mm 0,0 UV-I 0 W/m 6,0 C 9,5 C 1,6 km/h (1 Bft)
20.10.2015 19:20 9,4 C 79 % 1022,3 hPa 0,0 l/m 0,0 km/h (0 Bft) W-SW 244 0 min 0,000 mm 0,0 UV-I 0 W/m 5,9 C 9,4 C 1,6 km/h (1 Bft)
20.10.2015 19:25 9,4 C 79 % 1022,4 hPa 0,0 l/m 0,0 km/h (0 Bft) SW 221 0 min 0,000 mm 0,0 UV-I 0 W/m 5,9 C 9,4 C 1,6 km/h (1 Bft)
20.10.2015 19:30 9,3 C 79 % 1022,3 hPa 0,0 l/m 0,1 km/h (0 Bft) W-NW 294 0 min 0,000 mm 0,0 UV-I 0 W/m 5,8 C 9,3 C 3,2 km/h (1 Bft)
20.10.2015 19:35 9,3 C 79 % 1022,4 hPa 0,0 l/m 0,0 km/h (0 Bft) W-SW 243 0 min 0,000 mm 0,0 UV-I 0 W/m 5,8 C 9,3 C 1,6 km/h (1 Bft)
20.10.2015 19:40 9,2 C 79 % 1022,4 hPa 0,0 l/m 0,1 km/h (0 Bft) W-SW 257 0 min 0,000 mm 0,0 UV-I 0 W/m 5,8 C 9,2 C 1,6 km/h (1 Bft)
20.10.2015 19:45 9,2 C 79 % 1022,4 hPa 0,0 l/m 0,0 km/h (0 Bft) W-SW 257 0 min 0,000 mm 0,0 UV-I 0 W/m 5,8 C 9,2 C 0,0 km/h (0 Bft)
20.10.2015 19:50 9,2 C 79 % 1022,4 hPa 0,0 l/m 0,0 km/h (0 Bft) W-SW 257 0 min 0,000 mm 0,0 UV-I 0 W/m 5,8 C 9,2 C 0,0 km/h (0 Bft)
20.10.2015 19:55 9,3 C 79 % 1022,4 hPa 0,0 l/m 0,0 km/h (0 Bft) W-SW 257 0 min 0,000 mm 0,0 UV-I 0 W/m 5,8 C 9,3 C 0,0 km/h (0 Bft)
20.10.2015 20:00 9,2 C 79 % 1022,4 hPa 0,0 l/m 0,0 km/h (0 Bft) W-SW 257 0 min 0,000 mm 0,0 UV-I 0 W/m 5,8 C 9,2 C 0,0 km/h (0 Bft)
20.10.2015 20:05 9,2 C 79 % 1022,4 hPa 0,0 l/m 0,0 km/h (0 Bft) W-SW 257 0 min 0,025 mm 0,0 UV-I 0 W/m 5,8 C 9,2 C 0,0 km/h (0 Bft)
20.10.2015 20:10 9,2 C 79 % 1022,4 hPa 0,0 l/m 0,0 km/h (0 Bft) W 259 0 min 0,000 mm 0,0 UV-I 0 W/m 5,8 C 9,2 C 0,0 km/h (0 Bft)
20.10.2015 20:15 9,2 C 79 % 1022,4 hPa 0,0 l/m 0,0 km/h (0 Bft) W-NW 296 0 min 0,000 mm 0,0 UV-I 0 W/m 5,8 C 9,2 C 1,6 km/h (1 Bft)
20.10.2015 20:20 9,2 C 79 % 1022,3 hPa 0,0 l/m 0,0 km/h (0 Bft) W-SW 238 0 min 0,000 mm 0,0 UV-I 0 W/m 5,8 C 9,2 C 0,0 km/h (0 Bft)
20.10.2015 20:25 9,1 C 79 % 1022,4 hPa 0,0 l/m 0,0 km/h (0 Bft) W 270 0 min 0,000 mm 0,0 UV-I 0 W/m 5,7 C 9,1 C 1,6 km/h (1 Bft)
20.10.2015 20:30 9,1 C 79 % 1022,3 hPa 0,0 l/m 0,0 km/h (0 Bft) W 272 0 min 0,000 mm 0,0 UV-I 0 W/m 5,7 C 9,1 C 1,6 km/h (1 Bft)
20.10.2015 20:35 9,1 C 79 % 1022,4 hPa 0,0 l/m 0,2 km/h (0 Bft) W-NW 297 0 min 0,000 mm 0,0 UV-I 0 W/m 5,7 C 9,1 C 3,2 km/h (1 Bft)
20.10.2015 20:40 9,0 C 79 % 1022,4 hPa 0,0 l/m 0,1 km/h (0 Bft) W 279 0 min 0,000 mm 0,0 UV-I 0 W/m 5,6 C 9,0 C 1,6 km/h (1 Bft)
20.10.2015 20:45 8,9 C 79 % 1022,6 hPa 0,0 l/m 0,0 km/h (0 Bft) W 260 0 min 0,000 mm 0,0 UV-I 0 W/m 5,5 C 8,9 C 1,6 km/h (1 Bft)
20.10.2015 20:50 9,0 C 79 % 1022,6 hPa 0,0 l/m 0,0 km/h (0 Bft) W 275 0 min 0,000 mm 0,0 UV-I 0 W/m 5,6 C 9,0 C 1,6 km/h (1 Bft)
20.10.2015 20:55 8,9 C 79 % 1022,5 hPa 0,0 l/m 0,0 km/h (0 Bft) W-SW 258 0 min 0,000 mm 0,0 UV-I 0 W/m 5,5 C 8,9 C 1,6 km/h (1 Bft)
20.10.2015 21:00 8,9 C 79 % 1022,5 hPa 0,0 l/m 0,0 km/h (0 Bft) W-SW 258 0 min 0,000 mm 0,0 UV-I 0 W/m 5,5 C 8,9 C 0,0 km/h (0 Bft)
20.10.2015 21:05 8,9 C 79 % 1022,5 hPa 0,0 l/m 0,0 km/h (0 Bft) W 279 0 min 0,026 mm 0,0 UV-I 0 W/m 5,5 C 8,9 C 1,6 km/h (1 Bft)
20.10.2015 21:10 8,9 C 79 % 1022,6 hPa 0,0 l/m 0,0 km/h (0 Bft) W 264 0 min 0,000 mm 0,0 UV-I 0 W/m 5,5 C 8,9 C 0,0 km/h (0 Bft)
20.10.2015 21:15 8,8 C 79 % 1022,5 hPa 0,0 l/m 0,0 km/h (0 Bft) W 261 0 min 0,000 mm 0,0 UV-I 0 W/m 5,4 C 8,8 C 1,6 km/h (1 Bft)
20.10.2015 21:20 8,8 C 79 % 1022,5 hPa 0,0 l/m 0,1 km/h (0 Bft) W-SW 252 0 min 0,000 mm 0,0 UV-I 0 W/m 5,4 C 8,8 C 1,6 km/h (1 Bft)
20.10.2015 21:25 8,8 C 78 % 1022,6 hPa 0,0 l/m 0,0 km/h (0 Bft) W-NW 284 0 min 0,000 mm 0,0 UV-I 0 W/m 5,2 C 8,8 C 1,6 km/h (1 Bft)
20.10.2015 21:30 8,8 C 78 % 1022,6 hPa 0,0 l/m 0,0 km/h (0 Bft) W 268 0 min 0,000 mm 0,0 UV-I 0 W/m 5,2 C 8,8 C 1,6 km/h (1 Bft)
20.10.2015 21:35 8,8 C 79 % 1022,7 hPa 0,0 l/m 0,0 km/h (0 Bft) W 269 0 min 0,000 mm 0,0 UV-I 0 W/m 5,4 C 8,8 C 1,6 km/h (1 Bft)
20.10.2015 21:40 8,8 C 79 % 1022,7 hPa 0,0 l/m 0,0 km/h (0 Bft) W 269 0 min 0,000 mm 0,0 UV-I 0 W/m 5,4 C 8,8 C 1,6 km/h (1 Bft)
20.10.2015 21:45 8,8 C 78 % 1022,7 hPa 0,0 l/m 0,0 km/h (0 Bft) W 267 0 min 0,000 mm 0,0 UV-I 0 W/m 5,2 C 8,8 C 1,6 km/h (1 Bft)
20.10.2015 21:50 8,8 C 78 % 1022,7 hPa 0,0 l/m 0,0 km/h (0 Bft) W 267 0 min 0,000 mm 0,0 UV-I 0 W/m 5,2 C 8,8 C 1,6 km/h (1 Bft)
20.10.2015 21:55 8,8 C 78 % 1022,7 hPa 0,0 l/m 0,1 km/h (0 Bft) W 272 0 min 0,000 mm 0,0 UV-I 0 W/m 5,2 C 8,8 C 3,2 km/h (1 Bft)
20.10.2015 22:00 8,7 C 79 % 1022,7 hPa 0,0 l/m 0,2 km/h (0 Bft) W 270 0 min 0,000 mm 0,0 UV-I 0 W/m 5,3 C 8,7 C 3,2 km/h (1 Bft)
20.10.2015 22:05 8,7 C 79 % 1022,8 hPa 0,0 l/m 0,2 km/h (0 Bft) W-NW 301 0 min 0,025 mm 0,0 UV-I 0 W/m 5,3 C 8,7 C 1,6 km/h (1 Bft)
20.10.2015 22:10 8,7 C 78 % 1022,8 hPa 0,0 l/m 0,1 km/h (0 Bft) W 269 0 min 0,000 mm 0,0 UV-I 0 W/m 5,1 C 8,7 C 1,6 km/h (1 Bft)
20.10.2015 22:15 8,7 C 78 % 1022,8 hPa 0,0 l/m 0,0 km/h (0 Bft) W 272 0 min 0,000 mm 0,0 UV-I 0 W/m 5,1 C 8,7 C 1,6 km/h (1 Bft)
20.10.2015 22:20 8,7 C 78 % 1022,9 hPa 0,0 l/m 0,0 km/h (0 Bft) W 262 0 min 0,000 mm 0,0 UV-I 0 W/m 5,1 C 8,7 C 0,0 km/h (0 Bft)
20.10.2015 22:25 8,7 C 78 % 1022,9 hPa 0,0 l/m 0,1 km/h (0 Bft) W 268 0 min 0,000 mm 0,0 UV-I 0 W/m 5,1 C 8,7 C 1,6 km/h (1 Bft)
20.10.2015 22:30 8,7 C 78 % 1022,8 hPa 0,0 l/m 0,0 km/h (0 Bft) W 264 0 min 0,000 mm 0,0 UV-I 0 W/m 5,1 C 8,7 C 1,6 km/h (1 Bft)
20.10.2015 22:35 8,7 C 79 % 1022,8 hPa 0,0 l/m 0,0 km/h (0 Bft) W 279 0 min 0,000 mm 0,0 UV-I 0 W/m 5,3 C 8,7 C 0,0 km/h (0 Bft)
20.10.2015 22:40 8,7 C 78 % 1022,8 hPa 0,0 l/m 0,0 km/h (0 Bft) W 278 0 min 0,000 mm 0,0 UV-I 0 W/m 5,1 C 8,7 C 0,0 km/h (0 Bft)
20.10.2015 22:45 8,7 C 78 % 1022,8 hPa 0,0 l/m 0,0 km/h (0 Bft) W 278 0 min 0,000 mm 0,0 UV-I 0 W/m 5,1 C 8,7 C 0,0 km/h (0 Bft)
20.10.2015 22:50 8,7 C 78 % 1022,8 hPa 0,0 l/m 0,0 km/h (0 Bft) W 267 0 min 0,000 mm 0,0 UV-I 0 W/m 5,1 C 8,7 C 1,6 km/h (1 Bft)
20.10.2015 22:55 8,6 C 78 % 1022,8 hPa 0,0 l/m 0,1 km/h (0 Bft) W-SW 247 0 min 0,000 mm 0,0 UV-I 0 W/m 5,0 C 8,6 C 1,6 km/h (1 Bft)
20.10.2015 23:00 8,6 C 78 % 1022,7 hPa 0,0 l/m 0,1 km/h (0 Bft) S-SW 205 0 min 0,000 mm 0,0 UV-I 0 W/m 5,0 C 8,6 C 1,6 km/h (1 Bft)
20.10.2015 23:05 8,5 C 78 % 1022,7 hPa 0,0 l/m 0,1 km/h (0 Bft) W 265 0 min 0,025 mm 0,0 UV-I 0 W/m 4,9 C 8,5 C 1,6 km/h (1 Bft)
20.10.2015 23:10 8,5 C 78 % 1022,6 hPa 0,0 l/m 0,0 km/h (0 Bft) W-SW 244 0 min 0,000 mm 0,0 UV-I 0 W/m 4,9 C 8,5 C 1,6 km/h (1 Bft)
20.10.2015 23:15 8,4 C 78 % 1022,6 hPa 0,0 l/m 0,0 km/h (0 Bft) W-SW 244 0 min 0,000 mm 0,0 UV-I 0 W/m 4,8 C 8,4 C 0,0 km/h (0 Bft)
20.10.2015 23:20 8,4 C 78 % 1022,6 hPa 0,0 l/m 0,0 km/h (0 Bft) W-SW 244 0 min 0,000 mm 0,0 UV-I 0 W/m 4,8 C 8,4 C 0,0 km/h (0 Bft)
20.10.2015 23:25 8,4 C 78 % 1022,6 hPa 0,0 l/m 0,0 km/h (0 Bft) W-SW 244 0 min 0,000 mm 0,0 UV-I 0 W/m 4,8 C 8,4 C 0,0 km/h (0 Bft)
20.10.2015 23:30 8,4 C 78 % 1022,6 hPa 0,0 l/m 0,0 km/h (0 Bft) W-SW 244 0 min 0,000 mm 0,0 UV-I 0 W/m 4,8 C 8,4 C 0,0 km/h (0 Bft)
20.10.2015 23:35 8,4 C 78 % 1022,6 hPa 0,0 l/m 0,0 km/h (0 Bft) W-SW 244 0 min 0,000 mm 0,0 UV-I 0 W/m 4,8 C 8,4 C 0,0 km/h (0 Bft)
20.10.2015 23:40 8,4 C 78 % 1022,5 hPa 0,0 l/m 0,0 km/h (0 Bft) W-SW 244 0 min 0,000 mm 0,0 UV-I 0 W/m 4,8 C 8,4 C 0,0 km/h (0 Bft)
20.10.2015 23:45 8,4 C 78 % 1022,6 hPa 0,0 l/m 0,0 km/h (0 Bft) W-SW 245 0 min 0,000 mm 0,0 UV-I 0 W/m 4,8 C 8,4 C 1,6 km/h (1 Bft)
20.10.2015 23:50 8,4 C 78 % 1022,5 hPa 0,0 l/m 0,1 km/h (0 Bft) W 278 0 min 0,000 mm 0,0 UV-I 0 W/m 4,8 C 8,4 C 1,6 km/h (1 Bft)
20.10.2015 23:55 8,4 C 78 % 1022,4 hPa 0,0 l/m 0,0 km/h (0 Bft) W 260 0 min 0,000 mm 0,0 UV-I 0 W/m 4,8 C 8,4 C 0,0 km/h (0 Bft)
_ Min-Zeit 09:10 13:45 02:25 - 00:00 - - - - - - 09:10 09:10 00:00
Minimum _ 6,7 C 62 % 1021,3 hPa - 0,0 km/h (0 Bft) - - - - - - 3,3 C 6,7 C 0,0 km/h (0 Bft)
_ Max-Zeit 13:45 10:25 22:20 00:00 11:55 - - 10:15 16:05 12:35 13:05 15:40 13:45 15:10
Maximum _ 13,5 C 81 % 1022,9 hPa 0,0 l/m 7,4 km/h
W-NW (2 Bft)
- - 5 min 0,203 mm 1,9 UV-I 542 W/m 7,5 C 13,4 C 19,3 km/h
W-NW (3 Bft)
Durchschnitt _ 9,1 C 77 % 1021,9 hPa #0,0 l/m 0,8 km/h (0 Bft) W-NW - #5:00 h #1,422 mm 1,2 UV-I 238 W/m 5,3 C 9,1 C 4,4 km/h (1 Bft)